AirNav   Pilot Hours Calculator
 
 1384 users online  

83IL Oltman-Shuck Airport
Minonk, Illinois, USA

GOING TO MINONK?


FAA INFORMATION EFFECTIVE 25 FEBRUARY 2021

Location

FAA Identifier: 83IL
Lat/Long: 40-53-34.1220N 089-06-14.2880W
40-53.568700N 089-06.238133W
40.8928117,-89.1039689
(estimated)
Elevation: 736 ft. / 224.3 m (surveyed)
Variation: 00E (1985)
From city: 3 miles W of MINONK, IL
Time zone: UTC -6 (UTC -5 during Daylight Saving Time)
Zip code: 61760

Airport Operations

Airport use: Private use. Permission required prior to landing
Activation date: 07/1973
Control tower: no
ARTCC: CHICAGO CENTER
FSS: KANKAKEE FLIGHT SERVICE STATION
Attendance: UNATNDD
Wind indicator: yes
Segmented circle: no

Airport Communications

WX AWOS-3 at C75 (15 nm NW): 119.425 (309-246-3089)

Nearby radio navigation aids

VOR radial/distance  VOR name  Freq  Var
PNTr281/17.4PONTIAC VOR/DME109.6003E
BMIr339/25.9BLOOMINGTON VOR/DME108.2003E
BDFr126/27.1BRADFORD VORTAC114.7000E
PIAr064/33.8PEORIA VORTAC115.2004E

Airport Services

Runway Information

Runway 9/27

Dimensions: 2200 x 90 ft. / 671 x 27 m
Surface: turf
RUNWAY 9  RUNWAY 27
Traffic pattern: rightleft
Obstructions: road, 225 ft. from runwaycrops, 150 ft. from runway

Runway 18/36

Dimensions: 1800 x 70 ft. / 549 x 21 m
Surface: turf
RUNWAY 18  RUNWAY 36
Traffic pattern: leftright
Obstructions: bldg, 550 ft. from runway
ALSO WIRES.
crops, 15 ft. from runway

Airport Ownership and Management from official FAA records

Ownership: Privately-owned
Owner: PAMELA SHUCK-HOEHNE & JOHN OLTMAN
2311 COUNTY ROAD 2100N
MINONK, IL 61760
Phone (309) 231-3370
JOHN OLTMAN OWNER RWY 18/36; PAMELA SHUCK-HOEHNE TRUST OWNER RWY 09/27, 3817 N. HAWTHORNE PL. PEORIA IL 61614.
Manager: JOHN OLTMAN
2311 COUNTY ROAD 2100N
MINONK, IL 61760
Phone 309-231-3370
PHONE NUMBER FOR MR SHUCK IS 309-694-2284.

Airport Operational Statistics

Aircraft based on the field: 7
Single engine airplanes: 4
Ultralights: 3
    

Additional Remarks

FOR CD CTC CHICAGO ARTCC AT 630-906-8921.

Instrument Procedures

There are no published instrument procedures at 83IL.

Some nearby airports with instrument procedures:

C75 - Marshall County Airport (15 nm NW)
KPNT - Pontiac Municipal Airport (22 nm E)
3MY - Mount Hawley Auxiliary Airport (24 nm W)
KBMI - Central Illinois Regional Airport/Bloomington-Normal (26 nm S)
KVYS - Illinois Valley Regional Airport-Walter A Duncan Field (28 nm N)
 
Loc | Ops | Rwys | IFR | FBO | Links
Com | Nav | Svcs | Stats | Notes
Area around 83IL (Oltman-Shuck Airport)
 
Road maps at: MapQuest Bing Google
 
Aerial photo
No photo
 
Sectional chart

 
Airport distance calculator
Flying to Oltman-Shuck Airport? Find the distance to fly.

From to 83IL

Sunrise and sunset
Times for 26-Feb-2021
 Local
(UTC-6)
 Zulu
(UTC)
Morning civil twilight06:0812:08
Sunrise06:3612:36
Sunset17:4323:43
Evening civil twilight18:1000:10

Current date and time
Zulu (UTC)  26-Feb-2021 17:11:03
Local (UTC-6)  26-Feb-2021 11:11:03
 
METAR
KC75 
15nm NW 
261655Z AUTO 14010G16KT 10SM CLR 04/M02 A3013 RMK AO2 T00381018
KPNT 
21nm E 
261655Z AUTO 15012G18KT 10SM CLR 03/M01 A3018 RMK AO2 T00331009
KBMI 
27nm S 
261656Z 13012KT 10SM CLR 04/M01 A3014 RMK AO2 SLP211 T00391011
KVYS 
28nm N 
261655Z AUTO 14012KT 10SM 04/M03 A3014 RMK AO2 T00351028
TAF
KBMI 
27nm S 
261120Z 2612/2712 13008KT P6SM SKC FM270100 15009KT P6SM BKN050 FM270300 17010KT 5SM -RA BR BKN030 FM270600 20009KT P6SM OVC005 FM271100 24007KT P6SM SCT008
KPIA 
30nm SW 
251720Z 2518/2618 VRB03KT P6SM SCT120 BKN200 FM261000 10004KT 4SM BR SKC FM261400 14008KT P6SM FEW250
NOTAMs
Click for the latest NOTAMs
NOTAMs are issued by the DoD/FAA and will open in a separate window not controlled by AirNav.

 

 
 

Would you like to see your business listed on this page?

 If your business provides an interesting product or service to pilots, flight crews, aircraft, or users of the Oltman-Shuck Airport, you should consider listing it here.  To start the listing process, click on the button below
 
Add a business
 

Other Pages about Oltman-Shuck Airport

Update a link
 
Copyright © AirNav, LLC. All rights reserved. Privacy Policy  Contact